PQube® 3

Power Sensors Ltd.

PQube 3 - Power Quality & Power Flow - PSL - Alameda, California

Main Electrical Service
Monitoring two 3ph breakers


 
2017/02 PQube 3 Events
DateTimeTypeMagnitudeDuration in SecondsFiles
2017/02/28T 15:36:35:721 PSTWaveshape Change------
2017/02/28T 15:34:48:726 PSTWaveshape Change------
2017/02/28T 12:00:46:395 PSTSnapshot------
2017/02/27T 12:00:45:687 PSTSnapshot------
2017/02/26T 22:10:25:279 PSTProbe A Mechanical Shock0.36m/s²---
2017/02/26T 21:43:04:441 PSTProbe A Mechanical Shock0.34m/s²---
2017/02/26T 21:40:04:865 PSTProbe A Mechanical Shock0.99m/s²---
2017/02/26T 20:50:40:171 PSTProbe A Mechanical Shock1.36m/s²---
2017/02/26T 16:38:51:554 PSTProbe A Mechanical Shock1.01m/s²---
2017/02/26T 12:00:44:650 PSTSnapshot------
2017/02/25T 13:25:15:351 PSTWaveshape Change------
2017/02/25T 12:00:43:623 PSTSnapshot------
2017/02/25T 11:39:49:637 PSTWaveshape Change------
2017/02/25T 11:26:26:828 PSTWaveshape Change------
2017/02/25T 11:12:45:428 PSTWaveshape Change------
2017/02/25T 10:28:15:197 PSTWaveshape Change------
2017/02/25T 09:31:51:993 PSTWaveshape Change------
2017/02/25T 01:12:22:797 PSTVoltage Sag88.54%0.033
2017/02/25T 01:12:22:597 PSTWaveshape Change------
2017/02/25T 01:12:22:263 PSTVoltage Sag85.00%0.042
2017/02/25T 01:12:22:255 PSTWaveshape Change------
2017/02/24T 12:00:42:263 PSTSnapshot------
2017/02/24T 11:59:14:035 PSTWaveshape Change------
2017/02/24T 11:24:06:530 PSTWaveshape Change------
2017/02/23T 14:30:40:298 PSTWaveshape Change------
2017/02/23T 14:29:22:630 PSTWaveshape Change------
2017/02/23T 12:00:41:448 PSTSnapshot------
2017/02/22T 13:22:37:308 PSTProbe B Mechanical Shock0.12m/s²---
2017/02/22T 12:00:40:354 PSTSnapshot------
2017/02/21T 16:29:28:599 PSTProbe A Mechanical Shock0.40m/s²---
2017/02/21T 15:39:03:431 PSTWaveshape Change------
2017/02/21T 12:09:30:190 PSTProbe A Mechanical Shock0.28m/s²---
2017/02/21T 12:00:39:197 PSTSnapshot------
2017/02/21T 07:17:27:537 PSTProbe A Mechanical Shock0.70m/s²---
2017/02/20T 12:00:37:961 PSTSnapshot------
2017/02/20T 11:24:09:319 PSTProbe A Mechanical Shock0.93m/s²---
2017/02/20T 03:20:57:837 PSTProbe A Mechanical Shock0.24m/s²---
2017/02/20T 03:11:59:152 PSTProbe A Mechanical Shock0.33m/s²---
2017/02/20T 03:04:09:234 PSTProbe A Mechanical Shock0.46m/s²---
2017/02/20T 03:00:07:988 PSTProbe A Mechanical Shock0.34m/s²---
2017/02/20T 02:50:29:143 PSTProbe A Mechanical Shock0.82m/s²---
2017/02/20T 02:49:07:735 PSTProbe A Mechanical Shock0.50m/s²---
2017/02/20T 02:47:48:376 PSTProbe A Mechanical Shock0.28m/s²---
2017/02/20T 02:14:00:247 PSTProbe A Mechanical Shock0.98m/s²---
2017/02/20T 02:13:22:587 PSTProbe A Mechanical Shock0.42m/s²---
2017/02/19T 12:00:37:352 PSTSnapshot------
2017/02/19T 03:15:06:584 PSTProbe A Mechanical Shock0.16m/s²---
2017/02/18T 12:00:36:073 PSTSnapshot------
2017/02/17T 20:19:11:900 PSTProbe A Mechanical Shock0.65m/s²---
2017/02/17T 20:17:09:756 PSTProbe A Mechanical Shock0.38m/s²---
2017/02/17T 20:11:15:934 PSTProbe A Mechanical Shock0.20m/s²---
2017/02/17T 20:08:16:991 PSTProbe A Mechanical Shock0.64m/s²---
2017/02/17T 17:51:26:813 PSTProbe A Mechanical Shock0.32m/s²---
2017/02/17T 17:31:20:412 PSTProbe A Mechanical Shock0.36m/s²---
2017/02/17T 17:24:02:150 PSTProbe A Mechanical Shock1.14m/s²---
2017/02/17T 15:36:00:477 PSTProbe A Mechanical Shock0.71m/s²---
2017/02/17T 15:29:46:783 PSTProbe A Mechanical Shock0.50m/s²---
2017/02/17T 15:29:01:343 PSTProbe A Mechanical Shock0.18m/s²---
2017/02/17T 15:28:42:744 PSTWaveshape Change------
2017/02/17T 12:00:34:853 PSTSnapshot------
2017/02/17T 11:26:07:561 PSTWaveshape Change------
2017/02/17T 10:28:21:408 PSTProbe A Mechanical Shock0.70m/s²---
2017/02/17T 10:14:40:028 PSTProbe A Mechanical Shock0.85m/s²---
2017/02/17T 10:29:01:337 PSTVoltage Sag84.96%0.034
2017/02/17T 10:29:01:304 PSTWaveshape Change------
2017/02/17T 10:02:28:722 PSTVoltage Sag32.61%0.042
2017/02/17T 09:33:31:607 PSTRVC9.31%0.034
2017/02/17T 09:33:31:599 PSTWaveshape Change------
2017/02/17T 09:31:35:480 PSTRVC9.11%0.033
2017/02/17T 09:31:35:472 PSTWaveshape Change------
2017/02/17T 09:29:35:157 PSTRVC10.14%0.034
2017/02/17T 09:29:35:149 PSTWaveshape Change------
2017/02/17T 07:39:22:715 PSTProbe A Mechanical Shock0.66m/s²---
2017/02/17T 07:15:11:928 PSTWaveshape Change------
2017/02/17T 07:15:11:928 PSTRVC10.06%0.034
2017/02/17T 04:38:47:749 PSTProbe A Mechanical Shock0.43m/s²---
2017/02/17T 04:36:53:949 PSTProbe A Mechanical Shock0.62m/s²---
2017/02/16T 16:25:17:773 PSTPhase Current Trigger------
2017/02/16T 12:00:33:532 PSTSnapshot------
2017/02/16T 03:38:23:590 PSTProbe A Mechanical Shock0.17m/s²---
2017/02/16T 03:32:36:872 PSTProbe A Mechanical Shock1.64m/s²---
2017/02/16T 03:22:37:452 PSTProbe A Mechanical Shock0.37m/s²---
2017/02/16T 03:19:08:461 PSTProbe A Mechanical Shock0.87m/s²---
2017/02/16T 03:18:18:477 PSTProbe A Mechanical Shock0.42m/s²---
2017/02/16T 03:15:14:982 PSTProbe A Mechanical Shock0.59m/s²---
2017/02/16T 00:52:00:521 PSTProbe A Mechanical Shock2.15m/s²---
2017/02/15T 12:00:32:671 PSTSnapshot------
2017/02/14T 12:00:31:592 PSTSnapshot------
2017/02/14T 09:10:47:560 PSTProbe A Mechanical Shock0.32m/s²---
2017/02/13T 12:00:30:841 PSTSnapshot------
2017/02/12T 12:00:29:659 PSTSnapshot------
2017/02/11T 12:00:28:655 PSTSnapshot------
2017/02/10T 12:01:10:162 PSTSnapshot------
2017/02/10T 11:48:53:899 PSTProbe A Mechanical Shock1.59m/s²---
2017/02/10T 03:57:15:593 PSTVoltage Sag85.75%0.042
2017/02/10T 03:57:15:585 PSTWaveshape Change------
2017/02/09T 13:03:08:372 PSTWaveshape Change------
2017/02/09T 13:03:08:072 PSTWaveshape Change------
2017/02/09T 12:01:09:148 PSTSnapshot------
2017/02/08T 13:53:03:652 PSTProbe A Mechanical Shock1.32m/s²---
2017/02/08T 13:50:19:073 PSTProbe A Mechanical Shock0.49m/s²---
2017/02/08T 12:01:07:946 PSTSnapshot------
2017/02/08T 01:58:54:388 PSTVoltage Sag61.34%0.066
2017/02/08T 01:58:29:418 PSTVoltage Sag38.08%0.067
2017/02/08T 00:39:50:449 PSTProbe A Accelerometer Snapshot------
2017/02/08T 00:39:26:445 PSTProbe A Accelerometer Snapshot------
2017/02/08T 00:39:24:495 PSTSnapshot------
2017/02/08T 00:39:22:495 PSTSnapshot------
2017/02/07T 12:01:06:866 PSTSnapshot------
2017/02/06T 12:01:05:948 PSTSnapshot------
2017/02/06T 08:46:57:861 PSTProbe A Mechanical Shock0.74m/s²---
2017/02/05T 18:09:06:718 PSTProbe A Mechanical Shock0.25m/s²---
2017/02/05T 12:01:04:795 PSTSnapshot------
2017/02/04T 22:34:48:614 PSTProbe A Mechanical Shock0.52m/s²---
2017/02/04T 12:01:03:485 PSTSnapshot------
2017/02/03T 13:22:32:224 PSTProbe B Mechanical Shock0.58m/s²---
2017/02/03T 12:01:02:556 PSTSnapshot------
2017/02/03T 05:20:17:004 PSTProbe A Mechanical Shock0.39m/s²---
2017/02/03T 05:14:59:621 PSTProbe A Mechanical Shock0.10m/s²---
2017/02/03T 05:13:27:175 PSTProbe A Mechanical Shock1.01m/s²---
2017/02/03T 04:58:31:466 PSTProbe A Mechanical Shock0.88m/s²---
2017/02/03T 04:56:46:891 PSTProbe A Mechanical Shock0.23m/s²---
2017/02/03T 00:45:20:128 PSTProbe A Mechanical Shock0.64m/s²---
2017/02/02T 12:01:01:263 PSTSnapshot------
2017/02/02T 08:29:40:031 PSTProbe B Mechanical Shock0.54m/s²---
2017/02/02T 08:28:50:718 PSTProbe A Mechanical Shock1.23m/s²---
2017/02/02T 08:01:29:342 PSTProbe A Mechanical Shock1.09m/s²---
2017/02/02T 07:22:22:379 PSTProbe A Mechanical Shock0.81m/s²---
2017/02/02T 07:04:32:042 PSTProbe A Mechanical Shock0.47m/s²---
2017/02/02T 06:59:34:063 PSTRVC8.65%0.033
2017/02/02T 06:59:34:055 PSTWaveshape Change------
2017/02/02T 06:27:11:638 PSTProbe A Mechanical Shock0.07m/s²---
2017/02/02T 06:26:57:303 PSTProbe A Mechanical Shock0.68m/s²---
2017/02/01T 23:56:04:359 PSTProbe A Mechanical Shock0.72m/s²---
2017/02/01T 12:24:28:098 PSTProbe A Mechanical Shock1.18m/s²---
2017/02/01T 12:00:59:856 PSTSnapshot------
2017/02/01T 10:09:26:048 PSTProbe A Mechanical Shock1.40m/s²---